Location: Spangle
(47.4302°N, 117.3779°W)
Time: 14:57:35
(UTC+00:00)

Envisat - Pass Details

Date: 20 April 2026
Orbit: 761 x 762 km, 98.4° (Epoch: 15 May)

Event Time Altitude Azimuth Distance (km) Brightness Sun altitude
Rises 11:28:06 0° 6° (N) 3,236 6.9 -13.5°
Reaches altitude 10° 11:30:34 10° 358° (N) 2,306 5.9 -13.1°
Maximum altitude 11:35:07 34° 295° (WNW) 1,236 3.8 -12.5°
Enters shadow 11:38:24 17° 239° (WSW) 1,873 4.3 -12.0°
